Weather in Belyakovskoye

Russia / Kurgan Oblast     55°38′42″N   68°05′55″E
temp.,
°C
wind,
m/s
gust,
m/s
humid.,
%
clouds,
%
prec.,
mm/h
press.,
hPa
HPBL,
m
15 april, thu
thu1523:00+8wsw49905 0.0 1028125
02:00+8wsw47885 0.0 102798
05:00+6wsw479012 0.0 1027100
08:00+9wsw48837 0.0 1026197
11:00+15wsw57687 0.0 1024423
14:00+17wsw68575 0.0 1023770
17:00+17wsw69565 0.0 1021880
20:00+12sw511725 0.0 1020210
16 april, fri
fri1623:00+10sw511797 0.0 1019182
02:00+9wsw5128099 0.0 1018188
05:00+8w41086100 0.0 1018155
08:00+10nnw598386 0.0 1019391
11:00+7nne7985100 0.0 1022686
14:00+5ne6874100 0.0 1024709
17:00+9ne564882 0.0 10241377
20:00+5ne48665 0.0 1025145
17 april, sat
sat1723:00+3ene37725 0.0 1025146
02:00+1e36795 0.0 1025101
05:000sse238611 0.0 102442
08:00+4sw237117 0.0 1023247
11:00+8wnw34500 0.0 10221388
14:00+9nw464010 0.0 10211926
17:00+10nw453976 0.0 10201972
20:00+7w2254100 0.0 102020
18 april, sun
sun1823:00+6sw3361100 0.0 101842
02:00+4wsw4973100 0.0 1015168
05:00+3wsw5117099 0.0 1013244
08:00+5w6126893 0.0 1011782
11:00+6nw71062100 0.0 10101453
14:00+5nnw81049100 0.3 10121878
17:00+1n11124931 0.3 10151521
20:00−4n1015500 0.0 10201160
19 april, mon
mon1923:00−5n812495 0.0 10221337
02:00−7n8115080 0.0 10231376
05:00−8n812475 0.0 10251404
08:00−7n91139100 0.0 10271691
11:00−4n91132100 0.0 10282204
14:00−2n81026100 0.0 10282569
17:00−1n71028100 0.0 10282521
20:00−3n5103726 0.0 1030463